User: anonymous   Login
Location: Unspecified
(0.0000°N, 0.0000°E)
Time: 02:00:51
(UTC+00:00)
Language:

STARLINK-4171 - Orbit

View from above orbital plane
View from above orbital plane
View from above satellite
View from above satellite

Ground track
Ground track

The orbit is defined by the following mean orbital elements,

1 52878U          26145.38803522 +.00000000 +00000-0 +51086-4 0 00006
2 52878  53.2120  29.8070 0001166  86.9548 273.1577 15.08832205    01
Epoch (UTC): 25 May 2026 09:18:46
Eccentricity: 0.0001166
inclination: 53.2120°
perigee height: 539 km
apogee height: 541 km
right ascension of ascending node: 29.8070°
argument of perigee: 86.9548°
revolutions per day: 15.08832205
mean anomaly at epoch: 273.1577°

The dashed part of the orbit path shows where the satellite is in the earth's shadow,  

DLR